Home   Weather   Molde   Past weeks

Flag for Norway Past Weather in Molde, Norway — Yesterday and Last 2 Weeks

48 °F

Mostly cloudy.

Feels Like: 43 °F
Forecast: 47 / 49 °F
Wind: 12 mph from Southwest

Location: Aro

Current Time: Oct 27, 2016 at 5:15:14 AM

Latest Report: Oct 27, 2016 at 4:20 AM

Visibility: N/A

Pressure: 29.80 "Hg

Humidity: 82%

Dew Point: 43 °F

Location of MoldeLocation

Past Weather in Molde — Graph


Molde Temperature Yesterday

Maximum temperature yesterday: 57 °F (at 5:50 PM)
Minimum temperature yesterday: 39 °F (at 12:50 AM)
Average temperature yesterday: 48 °F

High & Low Weather Summary for the Past Weeks

High57 °F (Oct 18, 2:50 PM)100% (Oct 12, 3:20 AM)30.57 "Hg (Oct 12, 3:20 AM)
Low32 °F (Oct 13, 7:20 AM)37% (Oct 23, 2:50 PM)29.68 "Hg (Oct 26, 6:20 PM)
Average43 °F72%30.23 "Hg
* Reported Oct 12 3:20 AM — Oct 27 3:50 AM, Molde, Weather by CustomWeather, © 2016

Note: Actual official high and low records may vary slightly from our data, if they occured in-between our weather recording intervals... More about our weather records


Molde Weather History for the Previous 24 Hours

Scroll right to see more
Time TempWeatherWind HumidityBarometerVisibility
3:50 AM
Thu, Oct 27
48 °FMostly cloudy.23 mph82%29.80 "HgN/A
3:20 AM48 °FLight rain. Mostly cloudy.22 mph82%29.80 "HgN/A
2:50 AM46 °FMostly cloudy.5 mph87%29.80 "HgN/A
2:20 AM46 °FPassing clouds.13 mph87%29.80 "HgN/A
1:50 AM46 °FRain showers. Mostly cloudy.18 mph87%29.80 "HgN/A
1:20 AM48 °FSprinkles. Mostly cloudy.17 mph82%29.80 "HgN/A
12:50 AM48 °FRain showers. Overcast.23 mph82%29.80 "Hg4 mi
12:20 AM48 °FSprinkles. Partly cloudy.21 mph87%29.80 "HgN/A
11:50 PM
Wed, Oct 26
48 °FSprinkles. Partly cloudy.15 mph87%29.77 "HgN/A
11:20 PM48 °FSprinkles. Partly cloudy.17 mph87%29.77 "HgN/A
10:50 PM48 °FLight rain. Partly cloudy.8 mph87%29.77 "HgN/A
10:20 PM48 °FLight rain. Partly cloudy.22 mph87%29.77 "HgN/A
9:50 PM48 °FRain showers. Partly cloudy.14 mph87%29.77 "HgN/A
9:20 PM50 °FSprinkles. Partly cloudy.12 mph82%29.74 "HgN/A
8:50 PM48 °FSprinkles. Partly cloudy.8 mph87%29.74 "HgN/A
8:20 PM48 °FLight rain. Partly cloudy.5 mph94%29.71 "HgN/A
7:50 PM50 °FSprinkles. Partly cloudy.5 mph82%29.74 "HgN/A
7:20 PM50 °FRain showers. Partly cloudy.15 mph82%29.74 "HgN/A
6:50 PM55 °FSprinkles. Partly cloudy.12 mph59%29.68 "HgN/A
6:20 PM55 °FScattered showers. Passing clouds.13 mph59%29.68 "HgN/A
5:50 PM57 °FPassing clouds.16 mph55%29.71 "HgN/A
5:20 PM55 °FPartly sunny.15 mph55%29.71 "HgN/A
4:50 PM55 °FSprinkles. Broken clouds.17 mph55%29.74 "HgN/A
4:20 PM55 °FPartly sunny.15 mph55%29.74 "HgN/A
3:50 PM55 °FBroken clouds.15 mph59%29.74 "HgN/A
3:20 PM55 °FBroken clouds.15 mph59%29.77 "HgN/A
2:50 PM54 °FPartly sunny.5 mph54%29.77 "HgN/A
2:20 PM54 °FPartly sunny.3 mph54%29.77 "HgN/A
1:50 PM54 °FBroken clouds.9 mph54%29.80 "HgN/A
1:20 PM54 °FBroken clouds.9 mph54%29.83 "HgN/A
12:50 PM54 °FBroken clouds.9 mph51%29.83 "HgN/A
12:20 PM52 °FPartly sunny.3 mph54%29.86 "HgN/A
11:50 AM50 °FBroken clouds.7 mph67%29.86 "HgN/A
11:20 AM50 °FPartly sunny.7 mph71%29.89 "HgN/A
10:50 AM48 °FPartly sunny.6 mph58%29.89 "HgN/A
10:20 AM48 °FPartly sunny.6 mph58%29.92 "HgN/A
9:50 AM48 °FPartly sunny.12 mph71%29.92 "HgN/A
9:20 AM48 °FPartly sunny.5 mph54%29.95 "HgN/A
8:50 AM46 °FPartly sunny.15 mph76%29.95 "HgN/A
8:20 AM46 °FClear.7 mph71%29.95 "Hg10 mi
7:50 AM45 °FClear.12 mph76%29.98 "Hg10 mi
7:20 AM45 °FPassing clouds.7 mph61%29.98 "HgN/A
6:50 AM45 °FPassing clouds.9 mph71%30.01 "HgN/A
6:20 AM43 °FPassing clouds.9 mph66%30.01 "HgN/A
5:50 AM43 °FPartly cloudy.8 mph66%30.01 "HgN/A
5:20 AM43 °FOvercast.7 mph66%30.04 "HgN/A
Weather by CustomWeather, © 2016

See weather overviewHow to use our weather pages